Regional Weather Roundup
Issued by NWS

Home | Current Version | Previous Version | Graphics & Text | Print | Product List | Glossary Off
Versions: 1 2 3 4 5 6 7 8 9 10 11 12 13 14 15 16 17 18 19 20 21 22 23 24 25 26 27 28 29 30 31 32 33 34 35 36 37 38 39 40 41 42 43 44 45 46 47 48 49 50

000
ASUS43 KMKX 290211
RWRWI

WISCONSIN REGIONAL WEATHER ROUNDUP
NATIONAL WEATHER SERVICE MILWAUKEE/SULLIVAN WI
900 PM CDT THU AUG 28 2014

NOTE: "FAIR" INDICATES FEW OR NO CLOUDS BELOW 12,000 FEET WITH NO
SIGNIFICANT WEATHER AND/OR OBSTRUCTIONS TO VISIBILITY.

WIZ001-002-006>008-014>016-023>028-290300-
NORTHWEST WISCONSIN

CITY           SKY/WX    TMP DP  RH WIND       PRES   REMARKS
SUPERIOR ARPT  CLOUDY    61  59  93 NE3       29.99S
ASHLAND        CLOUDY    58  56  93 CALM      30.02S
HAYWARD        CLOUDY    66  61  84 SE6       30.01S
SIREN          DRIZZLE   65  61  87 SE5       29.98F
RICE LAKE      CLOUDY    64  60  89 E6        30.01F
LADYSMITH      DRIZZLE   65  62  89 SE6       30.04S
EAU CLAIRE     LGT RAIN  65  64  97 E8        29.99F
MENOMONIE      DRIZZLE   65  64  96 E9        29.98F
NEW RICHMOND   CLOUDY    65  63  92 E8        29.97S
OSCEOLA        CLOUDY    66  65  99 E6        29.99S
$$

WIZ003>005-009-010-017-018-290300-
NORTH CENTRAL WISCONSIN

CITY           SKY/WX    TMP DP  RH WIND       PRES   REMARKS
WOODRUFF       CLOUDY    65  59  81 S7        30.06S
RHINELANDER    CLOUDY    63  59  87 S8        30.08R
EAGLE RIVER    CLOUDY    63  57  80 S5        30.06S
LAND O LAKES   CLOUDY    63  57  82 S3        30.07S
PHILLIPS       CLOUDY    64  60  89 SE6       30.04S
TOMAHAWK       CLOUDY    62  60  91 SE3       30.06S
MEDFORD        DRIZZLE   62  61  97 SE5       30.05S
MERRILL        CLOUDY    64  62  94 S7        30.06S
$$

WIZ029-030-035-036-043>047-290300-
CENTRAL WISCONSIN

CITY           SKY/WX    TMP DP  RH WIND       PRES   REMARKS
WAUSAU         CLOUDY    64  61  90 SE8       30.05S
MOSINEE        CLOUDY    63  63 100 SE8       30.07S
MARSHFIELD     LGT RAIN  64  62  93 SE10      30.04F FOG
STEVENS POINT  CLOUDY    61  58  91 SE6       30.07S
WAUPACA        CLOUDY    64  58  78 SE3       30.08S
WAUTOMA        RAIN      63  58  83 CALM      30.06F
WISC RAPIDS    LGT RAIN  63  60  90 E7        30.06S
CAMP DOUGLAS   CLOUDY    63  63 100 E14       30.01S
$$

WIZ011>013-019>022-031-037>040-048>050-290300-
NORTHEAST WISCONSIN

CITY           SKY/WX    TMP DP  RH WIND       PRES   REMARKS
ANTIGO         CLOUDY    61  59  95 S8        30.09S
STURGEON BAY   CLOUDY    61  54  77 SE5       30.10S
GREEN BAY      CLOUDY    62  56  80 E5        30.08S
MANITOWOC      LGT RAIN  64  59  83 SE6       30.09F
APPLETON       CLOUDY    63  55  77 VRB3      30.08F
CLINTONVILLE   LGT RAIN  61  59  94 CALM      30.07F
OSHKOSH        CLOUDY    63  57  81 SE5       30.06F
$$

WIZ032>034-041-042-053>061-290300-
SOUTHWEST WISCONSIN

CITY           SKY/WX    TMP DP  RH WIND       PRES   REMARKS
LA CROSSE      CLOUDY    68  64  87 CALM      29.96S
SPARTA         DRIZZLE   65  63  93 N5        30.00R
VIROQUA        CLOUDY    65  65 100 SE7       29.98S
BOSCOBEL       CLOUDY    72  60  66 MISG      29.98R
PRAIRIE DU CHI CLOUDY    70  61  71 SE7       29.96S
PLATTEVILLE    CLOUDY    68  61  80 E13       30.01S
$$

WIZ056-057-062-063-064-067-068-290300-
SOUTH CENTRAL WISCONSIN

CITY           SKY/WX    TMP DP  RH WIND       PRES   REMARKS
BARABOO/DELLS  CLOUDY    64  53  66 E8        30.03S
LONE ROCK      CLOUDY    73  57  57 SE12      30.00S
WATERTOWN      CLOUDY    63  56  80 E5        30.05S
MADISON        CLOUDY    66  54  65 E9        30.04S
MIDDLETON      CLOUDY    68  54  60 E12G17    30.03S
MONROE         CLOUDY    64  57  77 E8        30.03R
JANESVILLE     CLEAR     66  57  72 E7        30.03F
$$

WIZ051-052-058>065-066-070>072-290300-
SOUTHEAST WISCONSIN

CITY           SKY/WX    TMP DP  RH WIND       PRES   REMARKS
MILWAUKEE      CLOUDY    67  56  67 E8        30.07S
WAUKESHA       PTCLDY    63  55  77 E7        30.09R
MILWAUKEE/TIMM CLEAR     66  54  63 E3        30.08S
RACINE         CLOUDY    69  58  67 E8        30.09R
BURLINGTON     CLOUDY    63  58  85 E5        30.07R
KENOSHA        CLOUDY    65  60  84 E5        30.07R
FOND DU LAC    CLOUDY    63  54  72 CALM      30.07S
SHEBOYGAN      LGT RAIN  63  57  81 CALM      30.09S
WEST BEND      LGT RAIN  61  54  77 E3        30.08S
JUNEAU         CLOUDY    62  53  74 E7        30.07S
$$

LSZ147-162-290300-
LAKE SUPERIOR

STATION/POSITION TIME  TEMP    WIND        PRES    WAVE
                       AIR SEA DIR/SP/G            HT/PER
                 (UTC) (F)     (DEG/KT/KT) (MB)    (FT/S)
W MID LAKE BUOY  0150   61 58  100/ 10/ 10 1016.0F   0
DEVILS ISLAND    0200   62     130/  8/  9 1016.2R
PORT WING        0100   65     130/  3/  7 1015.9S
SAXON HARBOR     0100   63        CALM     1015.9F
$$

LMZ867-665-643>646-290300-
LAKE MICHIGAN

STATION/POSITION TIME  TEMP    WIND        PRES    WAVE
                       AIR SEA DIR/SP/G            HT/PER
                 (UTC) (F)     (DEG/KT/KT) (MB)    (FT/S)
N MID LAKE BUOY  0150   64 66  130/  8/ 10 1019.3F   0
NORTHPORT PIER   0100   65     120/ 10/ 11 1019.0F
SISTER BAY       0011   64      CALM  /  3   N/A
ALGOMA LAKESHORE 0053          170/  9/ 10   N/A
KEWAUNEE LAKESHO 0100   65     130/  6/  7 1018.0F
SHEBOYGAN LAKESH 0200   66 68   80/  9/ 10 1018.8F
ATWATER BUOY     0200   68      90/ 10/ 12 1019.4R
MILWAUKEE LAKESH 0100   68     100/  9/  9   N/A
S MID LAKE BUOY  0150   69 69   80/ 14/ 16 1018.2R   1/ 3
KENOSHA   LAKESH 0200   70     110/ 10/ 12 1017.9R
$$

TC  - TEMPERATURE IN CELSIUS
VSB - VISIBILITY IN STATUTE MILES
WCI - WIND CHILL INDEX
HX  - HEAT INDEX



USA.gov is the U.S. government's official web portal to all federal, state and local government web resources and services.